Terminal Aerodrome Forecast
Issued by NWS Sioux Falls, SD

Home | Current Version | Previous Version | Text Only | Print | Product List | Glossary On
Versions: 1 2 3 4 5 6 7 8 9 10 11 12 13 14 15 16 17 18 19
000
FTUS43 KFSD 252320
TAFHON
TAF
KHON 252320Z 2600/2624 13008KT 2SM -SN OVC025
      TEMPO 2602/2605 1SM -SN OVC010
     FM260700 29010KT 4SM -SN OVC015
      TEMPO 2607/2608 2SM -SN OVC008
     FM261000 34018G27KT P6SM OVC009
     FM261400 34021G29KT P6SM BKN015
     FM261700 34019G27KT P6SM SCT015
     FM262200 34013G20KT P6SM SCT080=

USA.gov is the U.S. government's official web portal to all federal, state and local government web resources and services.